Location: Bacea
(45.9500°N, 22.6667°E)
Time: 07:55:11
(UTC+00:00)

Cosmos 1300 - Pass Details

Date: 31 May 2022
Orbit: 506 x 508 km, 82.5° (Epoch: 06 July)

Event Time Altitude Azimuth Distance (km) Brightness Sun altitude
Rises 21:36:14 0° 7° (N) 2,623 7.6 -21.1°
Reaches altitude 10° 21:39:01 10° 28° (NNE) 1,732 6.0 -21.2°
Maximum altitude 21:41:29 17° 69° (ENE) 1,367 4.9 -21.3°
Enters shadow 21:42:15 16° 84° (E) 1,403 4.8 -21.3°
